Location: Los Ranchitos
(37.9930°N, 122.5425°W)
Time: 02:57:21
(UTC+00:00)

USA 186 - Pass Details

Date: 21 September 2020
Orbit: 261 x 425 km, 96.9° (Epoch: 12 October)

Event Time Altitude Azimuth Distance (km) Brightness Sun altitude
Exits shadow 03:15:22 23° 70° (ENE) 923 3.0 -13.8°
Drops below altitude 10° 03:17:54 10° 18° (NNE) 1,499 4.5 -14.3°
Sets 03:20:12 0° 3° (N) 2,386 5.7 -14.7°
